Location: Campillo
(40.8621°N, 4.2488°W)
Time: 21:23:10
(UTC+00:00)

USA 306 - Pass Details

Date: 29 September 2021
Orbit: 564 x 573 km, 54.0° (Epoch: 24 September)

Event Time Altitude Azimuth Distance (km) Brightness Sun altitude
Rises 20:57:54 0° 306° (NW) 2,762 7.5 -32.9°
Reaches altitude 10° 21:00:12 10° 300° (WNW) 1,863 6.3 -33.3°
Enters shadow 21:01:36 20° 293° (WNW) 1,345 5.4 -33.5°
